• Processing (Info)

  • MPEC 2023-V235 : 2023 VH8

    The following Minor Planet Electronic Circular may be linked-to from your own Web pages, but must not otherwise be redistributed electronically.

    A form allowing access to any MPEC is at the bottom of this page.


    Read MPEC 2023-V234 Read MPEC 2023-V236


    M.P.E.C. 2023-V235                            Issued 2023 November 13, 21:36 UT
    
         The Minor Planet Electronic Circulars contain information on unusual
             minor planets, routine data on comets and natural satellites,
             and occasional editorial announcements.  They are published
        on behalf of Division F of the International Astronomical Union by the
              Minor Planet Center, Smithsonian Astrophysical Observatory,
                              Cambridge, MA 02138, U.S.A.
    			  
                 Prepared using the Tamkin Foundation Computer Network
    
                                  MPC@CFA.HARVARD.EDU
                URL https://www.minorplanetcenter.net/    ISSN 1523-6714
    
                                    2023 VH8                                 
    
    
    Observations:
         K23V08H* C2023 11 12.32491201 53 44.801-07 36 11.42         20.79wXEV235F52
         K23V08H  C2023 11 12.33597201 53 43.386-07 34 58.67         21.25wXEV235F52
         K23V08H  C2023 11 12.35822001 53 40.518-07 32 32.65         21.24wXEV235F52
         K23V08H  C2023 11 12.41791501 53 32.876-07 25 59.61         21.10GVEV235F51
         K23V08H  C2023 11 12.41855501 53 32.761-07 25 54.95         21.07GVEV235F51
         K23V08H KC2023 11 13.13209901 52 21.19 -06 07 56.3          21.4 GVEV235H21
         K23V08H KC2023 11 13.13782301 52 20.50 -06 07 18.9          21.4 GVEV235H21
         K23V08H KC2023 11 13.14383401 52 19.78 -06 06 39.3          21.4 GVEV235H21
         K23V08H KC2023 11 13.15130 01 52 19.25 -06 05 49.8          20.8 RqEV235H36
         K23V08H KC2023 11 13.17423 01 52 16.52 -06 03 18.7          20.9 RqEV235H36
         K23V08H KC2023 11 13.45813301 51 45.440-05 31 58.33         22.02GVEV235F51
         K23V08H 1C2023 11 13.88154 01 51 05.94 -04 46 06.3          20.5 VXEV235033
         K23V08H 1C2023 11 13.88385 01 51 05.63 -04 45 51.5          20.9 VXEV235033
         K23V08H 1C2023 11 13.88616 01 51 05.38 -04 45 36.6          20.5 VXEV235033
    
    Observer details:
    033 Karl Schwarzschild Observatory, Tautenburg.  Observers S. Melnikov, C.
        Hogner, F. Ludwig, M. Hartmann, B. Stecklum.  Measurer B. Stecklum.
        1.34-m f/3 Schmidt + CCD.
    F51 Pan-STARRS 1, Haleakala.  Observers J. Bulger, T. Lowe, P. Minguez, A.
        Schultz, I. Smith.  Measurers K. Chambers, T. de Boer, J. Fairlamb, H.
        Gao, M. Huber, C.-C. Lin, E. Magnier, Y. Ramanjooloo, R. Wainscoat, R.
        Weryk.  1.8-m Ritchey-Chretien + CCD.
    F52 Pan-STARRS 2, Haleakala.  Observers J. Bulger, T. Lowe, P. Minguez, A.
        Schultz, I. Smith.  Measurers K. Chambers, T. de Boer, J. Fairlamb, H.
        Gao, M. Huber, C.-C. Lin, E. Magnier, Y. Ramanjooloo, R. Wainscoat, R.
        Weryk.  1.8-m Ritchey-Chretien + CCD.
    H21 Astronomical Research Observatory, Westfield.  Observer R. Holmes.
        Measurers T. Linder, R. Holmes, L. Horn.  0.81-m f/4.0 astrograph + CCD.
    H36 Sandlot Observatory, Scranton.  Observer G. Hug.  .57 meter f/4.2 + CCD.
    
    Orbital elements:
    2023 VH8                                                 Earth MOID = 0.1336 AU
    Epoch 2023 Sept. 13.0 TT = JDT 2460200.5                MPC                     
    M 335.03712              (2000.0)            P               Q                  
    n   0.61187126     Peri.  332.71927     +0.87079863     -0.44707043             
    a   1.3741348      Node    55.31768     +0.48412518     +0.70729000             
    e   0.1927288      Incl.   14.40290     +0.08563034     +0.54760285             
    P   1.61           H   23.99          G   0.15           U   9                  
    Residuals in seconds of arc
    231112 F52  0.0   0.2+    231113 H21  0.0   0.0     231113 F51  0.1-  0.2+
    231112 F52  0.1+  0.3+    231113 H21  0.0   0.1-    231113 033  1.0+  0.2+
    231112 F52  0.0   0.0     231113 H21  0.0   0.0     231113 033  0.3+  0.1-
    231112 F51  0.4+  0.3-    231113 H36  0.7-  0.2-    231113 033  0.5+  0.4-
    231112 F51  0.1-  0.2+    231113 H36  0.2-  0.4+
    
    Ephemeris:
    2023 VH8                 a,e,i = 1.37, 0.19, 14                  q = 1.1093
    Date    TT    R. A. (2000) Decl.     Delta      r    Elong.  Phase     V
    2023 10 14    02 57 08.9 -45 31 28   0.1927  1.1115   121.9    49.7    22.5
    ...
    2023 10 29    02 24 25.5 -31 18 16   0.1559  1.1099   135.4    38.9    21.7
    ...
    2023 11 06    02 06 09.8 -18 56 34   0.1462  1.1133   144.2    31.4    21.4
    ...
    2023 11 12    01 54 18.2 -08 11 28   0.1463  1.1177   148.8    27.3    21.3
    2023 11 13    01 52 33.8 -06 21 48   0.1470  1.1186   149.2    26.9    21.3
    2023 11 14    01 50 54.1 -04 32 27   0.1480  1.1196   149.5    26.7    21.3
    ...
    2023 11 20    01 42 43.4 +05 58 24   0.1579  1.1261   148.6    27.2    21.5
    ...
    2023 11 28    01 36 55.5 +17 51 56   0.1813  1.1370   143.2    31.3    21.9
    ...
    2023 12 13    01 41 10.3 +32 38 34   0.2475  1.1638   131.6    39.2    22.8
    
    A. U. Tomatic                (C) Copyright 2023 MPC           M.P.E.C. 2023-V235
    


    Read MPEC 2023-V234 Read MPEC 2023-V236


    MPEC number:

    Enter an MPEC number in one of the following forms:

    • 1997-B01 (the full form)
    • J97B01 (the packed version of the full form)
    • B01 (the abbreviated form)